Weather in Gory

Russia / Perm Krai     57°17′38″N   55°34′00″E
temp.,
°C
wind,
m/s
gust,
m/s
humid.,
%
clouds,
%
prec.,
mm/h
press.,
hPa
HPBL,
m
3 march, wed
wed323:00−7s5119598 1.1 996326
02:00−6s3696100 0.6 995166
05:00−5wsw2597100 1.1 996145
08:00−7w369798 0.1 996132
11:00−5w369597 0.1 997292
14:00−2wsw359495 0.0 997386
17:00−2wsw359295 0.1 997480
20:00−4w1197100 0.6 99721
4 march, thu
thu423:00−4wsw1298100 1.8 99884
02:00−6nw5995100 1.5 997459
05:00−13w369799 1.8 998130
08:00−14sw239891 0.1 99859
11:00−8sw489395 0.3 998426
14:00−6ssw5893100 0.3 996565
17:00−5ssw5992100 0.6 995648
20:00−5s51195100 0.7 993603
5 march, fri
fri523:00−5s4994100 1.4 991276
02:00−5w2497100 0.8 992176
05:00−7wsw3896100 1.1 995241
08:00−9w359693 0.2 997115
11:00−7w349494 0.3 999313
14:00−5w2388100 0.1 1000504
17:00−4w2390100 0.3 1001439
20:00−9nw3492100 0.1 100186
6 march, sat
sat623:00−15nw239577 0.1 100326
02:00−16wnw239767 0.1 100635
05:00−20w229871 0.1 100921
08:00−20wsw239983 0.1 101052
11:00−15w359383 0.1 1011280
14:00−11w348478 0.0 1010472
17:00−10sw248684 0.0 1009485
20:00−14ssw239683 0.0 100822
7 march, sun
sun723:00−15ssw369689 0.2 1009156
02:00−14sw2596100 0.3 1008134
05:00−17w3397100 0.4 100967
08:00−23w229952 0.0 100920
11:00−18wsw239030 0.0 1010254
14:00−12sw468541 0.0 1011683
17:00−11sw578671 0.1 1010844
20:00−15s4994100 0.1 1010232